Location: Ettringen
(48.1054°N, 10.6545°E)
Time: 07:08:35
(UTC+00:00)

Cosmos 1943 Rocket - Pass Details

Date: 18 November 2025
Orbit: 812 x 841 km, 71.0° (Epoch: 06 December)

Event Time Altitude Azimuth Distance (km) Brightness Sun altitude
Rises 17:22:06 0° 216° (SW) 3,373 6.0 -17.5°
Reaches altitude 10° 17:24:34 10° 219° (SW) 2,439 5.3 -17.9°
Maximum altitude 17:30:07 64° 301° (WNW) 919 2.5 -18.8°
Enters shadow 17:35:14 12° 22° (NNE) 2,273 4.2 -19.7°
